ATLAS CENTAUR 2

Last updated on Wed Jul 02 2025 00:02:13 GMT+0000 (Coordinated Universal Time)

1 00694U 63047A 25182.03960735 .00002272 00000+0 27066-3 0 9996 2 00694 30.3522 160.5797 0552588 24.7340 337.8735 14.10827212 95664
UTC large
Height (km)
Speed (km/s)
/
Latitude / Longitude
Inclination (degrees)
Orbital Period (minutes)
Azimuth
Elevation
Range (km)
Doppler Factor

Next 0 passes for location: London (51.5072 / 0.1276)

Sorry there are no passes over London.